RH
15 15 17 18 16 17 14 16 18 17 19 23 23 20 19 25 27 28 29 32 34 37 37 39 41 41 40 40 37 36 39 43 35 29 28 27 28 28 29 29 40 42 44 47
16 16 12 14 18 18 17 18 18 22 21 23 20 21 17 22 26 25 27 30 33 36 41 42 42 42 43 41 38 37 37 40 35 27 28 30 31 28 28 28 35 39 45 48
13 13 16 18 17 18 18 18 19 17 23 21 25 23 20 18 21 23 24 27 30 35 41 44 44 44 42 41 39 37 38 39 39 37 27 27 26 24 25 28 30 35 43 46
14 13 18 19 18 18 20 16 16 21 22 19 23 14 14 16 23 25 25 27 31 35 38 40 42 44 40 40 40 38 41 39 34 38 33 37 29 29 31 31 33 34 42 45
14 14 18 20 18 18 18 17 18 20 19 21 22 21 11 23 22 22 25 26 31 36 38 41 40 39 36 39 39 41 41 36 36 36 39 34 37 31 30 33 41 40 40 43
13 10 10 12 13 13 15 17 18 19 17 19 14 17 10 12 18 21 20 24 32 36 39 39 40 40 38 35 39 40 39 37 38 39 40 42 43 40 37 39 37 36 36 38
13 12 10 10 13 13 12 14 18 18 18 15 15 19 12 17 21 23 24 25 32 37 40 41 43 39 40 41 42 38 37 40 39 39 40 40 39 41 40 39 36 40 38 40
15 18 12 10 12 13 13 13 19 22 15 14 18 15 13 22 24 26 24 25 33 39 42 41 40 40 40 42 43 42 35 35 36 37 39 37 38 33 33 38 39 37 40 42
16 16 10 11 11 11 16 15 14 20 25 18 9 12 20 23 24 28 28 31 38 40 43 42 42 43 42 42 46 41 35 34 36 38 38 37 37 40 39 42 41 38 44 42
15 20 12 10 9 11 13 12 17 15 22 20 12 13 10 20 21 28 36 39 41 41 42 42 42 45 41 42 43 41 36 35 36 37 37 33 37 39 39 38 41 43 46 49
14 17 17 12 13 12 13 14 15 15 18 18 17 12 19 20 19 25 32 37 42 44 44 44 43 44 43 42 37 38 37 36 39 40 38 39 38 37 35 33 38 43 45 46
16 20 20 14 12 10 10 13 15 18 21 21 24 17 19 24 24 27 30 38 41 42 44 43 43 45 47 42 36 37 40 39 43 39 38 38 36 31 29 32 35 39 40 43
19 20 22 19 16 14 13 12 13 16 20 21 22 17 21 24 25 29 34 38 41 45 46 46 45 46 45 41 38 36 38 41 42 33 33 34 34 29 29 31 33 36 39 41
38 21 21 19 16 14 18 13 12 16 18 17 18 15 20 19 22 34 36 40 42 47 49 47 47 47 43 39 39 37 41 43 39 31 30 35 34 30 30 31 33 37 39 40
28 26 22 17 18 18 15 13 13 14 14 18 14 15 14 22 26 34 38 42 46 48 50 49 49 48 42 41 38 38 42 42 34 30 31 36 34 31 31 33 33 35 38 39
29 27 29 25 22 20 19 14 12 13 12 14 14 15 22 33 33 39 42 44 47 48 48 48 48 45 39 38 39 39 41 39 31 33 34 35 33 30 33 34 34 33 36 40
32 33 31 28 29 25 29 22 17 14 14 14 19 17 26 33 32 36 40 41 44 47 47 48 46 40 38 38 39 41 39 31 31 34 32 33 33 33 36 33 32 33 38 40
35 35 37 35 32 84 21 24 22 19 19 18 19 22 23 27 33 34 35 39 44 45 48 47 41 40 40 38 39 41 30 30 33 34 32 33 34 34 35 34 36 35 34 38
34 38 46 85 43 25 17 23 22 25 23 18 21 32 35 36 38 46 40 40 44 47 45 43 40 41 40 41 40 34 29 30 32 35 34 34 37 35 37 38 37 33 35 37
33 36 40 80 100 49 29 21 19 20 27 23 27 36 38 35 33 40 50 49 47 45 41 41 40 39 44 43 37 30 30 32 34 37 37 34 35 35 40 41 38 33 33 34
36 36 42 42 61 41 26 17 19 33 36 29 29 36 35 36 42 52 51 46 42 40 42 42 42 42 42 40 32 32 33 37 37 37 36 35 34 32 35 36 31 33 34 36
45 56 58 53 51 66 27 18 34 39 36 36 36 38 43 53 58 51 46 44 44 46 45 44 43 43 42 34 29 32 40 39 36 36 38 38 38 31 28 32 31 34 38 42
55 44 49 48 47 42 35 34 32 33 37 38 39 44 51 52 50 47 49 47 48 46 46 41 41 44 39 28 28 38 41 36 37 42 67 46 33 31 31 30 35 41 44 46
46 52 61 61 55 54 51 43 37 38 40 35 40 46 47 48 47 48 49 50 48 48 46 42 45 40 36 33 37 53 81 80 75 74 44 30 30 27 27 34 39 48 54 55
46 51 59 73 62 57 45 39 39 45 43 44 42 42 45 45 46 47 52 49 48 47 48 44 39 40 54 50 68 59 61 41 34 29 26 27 29 27 27 38 56 56 62 64
50 67 89 91 64 62 53 40 44 48 43 42 44 46 44 43 47 47 49 48 49 51 45 43 48 77 79 77 77 67 39 27 26 26 26 30 27 28 26 32 48 72 69 67
Wind_Speed
8 9 12 17 15 5 3 8 9 9 7 15 18 16 15 17 19 20 19 18 16 15 13 10 8 7 6 6 7 6 7 8 7 6 7 7 7 6 6 7 8 9 9 11
7 13 8 8 5 6 7 7 6 4 5 13 10 18 15 19 22 21 20 19 18 16 14 12 10 7 6 6 6 6 7 8 8 6 6 6 6 5 6 6 7 8 9 10
12 3 6 13 11 9 7 8 4 6 7 11 6 16 18 15 19 18 18 17 18 18 17 14 11 8 7 6 5 5 7 7 8 9 6 6 5 5 6 7 6 7 9 10
9 5 12 13 15 13 12 5 5 8 10 5 8 6 7 8 13 16 18 18 18 18 16 14 13 10 7 6 5 6 7 7 7 8 8 9 8 8 7 6 7 7 8 10
4 8 11 11 7 10 1 4 4 7 8 5 10 8 1 3 9 14 17 17 18 17 16 15 13 11 8 7 6 6 6 7 7 8 8 7 8 7 6 6 9 8 8 9
4 1 3 2 6 3 14 8 6 5 5 9 5 8 3 3 2 3 9 15 17 18 16 15 12 11 8 7 6 6 6 6 6 7 8 9 9 9 8 9 7 7 7 7
5 6 4 7 10 9 7 9 6 7 6 4 4 7 8 3 2 2 1 10 16 18 17 15 14 11 9 7 7 6 6 6 6 7 8 8 9 8 9 9 8 10 7 7
10 8 11 8 5 8 15 9 6 7 5 1 3 8 3 5 2 2 2 9 15 17 16 15 13 11 10 8 7 6 4 5 6 7 7 8 8 7 7 8 8 7 8 8
6 4 4 1 3 3 7 9 5 6 1 6 7 5 7 3 4 5 7 11 15 17 16 15 13 10 9 8 7 6 4 4 6 7 7 7 7 8 8 9 9 8 9 9
4 5 3 5 4 3 6 9 5 5 6 8 5 7 2 7 8 9 10 11 13 16 16 14 12 11 8 8 7 6 3 5 5 7 7 7 8 8 8 8 10 10 10 11
7 7 7 5 11 11 7 9 5 5 5 6 7 2 4 6 4 7 9 11 15 17 17 15 12 10 9 8 7 6 3 3 6 7 7 7 8 8 9 9 9 10 10 11
3 5 10 11 2 5 9 12 14 8 7 3 5 4 5 3 3 2 10 12 14 16 15 14 12 11 9 8 7 5 3 4 6 6 6 7 8 9 9 9 10 10 11 10
3 6 11 6 5 5 8 13 13 8 2 9 7 1 5 5 4 4 10 13 15 16 16 14 12 10 9 8 6 5 4 5 6 6 6 7 8 9 9 10 10 10 10 10
3 7 12 13 11 3 6 13 16 15 9 10 13 7 8 6 4 7 10 13 15 16 16 13 12 10 9 7 6 5 5 5 6 5 6 7 8 9 9 9 10 10 10 11
3 8 7 8 6 5 7 9 14 18 19 10 8 9 4 3 3 8 11 14 16 16 16 14 12 10 9 8 7 6 5 5 6 5 6 7 8 8 9 10 10 10 10 10
2 7 3 6 4 6 10 10 11 16 15 14 8 8 4 5 7 10 12 15 16 16 15 14 12 11 10 8 7 6 5 6 4 5 6 7 8 8 9 10 11 11 11 11
3 4 4 13 3 4 10 15 15 9 9 11 10 3 10 7 8 10 12 13 14 15 15 14 12 10 9 8 7 6 6 6 4 6 6 7 8 9 10 10 11 12 11 11
6 5 3 7 3 4 4 2 6 14 6 7 4 7 3 8 8 7 7 11 13 14 14 13 11 10 9 9 8 7 6 5 4 6 6 7 8 9 10 11 11 12 11 11
2 2 4 3 5 11 12 6 6 9 8 9 7 8 9 10 11 8 6 7 11 13 13 12 11 11 11 9 8 7 6 5 5 6 6 7 7 8 9 10 12 12 11 10
10 5 4 2 5 7 8 1 2 3 3 9 11 13 13 12 8 6 10 11 14 14 13 14 13 12 11 9 8 7 6 6 6 5 5 5 7 8 9 10 10 11 10 10
5 3 2 6 6 7 9 7 4 6 5 7 8 10 11 5 7 16 14 14 15 15 16 15 13 11 11 9 7 7 6 6 5 4 4 6 8 8 8 9 10 10 10 10
5 3 2 2 3 7 9 4 8 8 2 7 7 8 9 12 13 14 15 16 17 17 16 14 13 11 10 8 7 7 6 5 4 5 6 6 7 6 7 9 10 10 11 11
5 5 3 7 2 2 5 6 6 6 4 4 5 11 13 14 15 15 15 16 15 16 14 12 12 12 9 8 6 7 5 5 5 6 5 5 6 6 8 9 10 9 11 10
1 3 5 4 4 4 4 6 2 3 3 4 9 15 14 15 16 17 15 15 13 13 12 12 12 11 9 7 6 7 7 7 4 3 0 5 7 7 9 8 8 9 10 10
1 1 8 8 9 11 12 8 2 5 9 11 12 12 12 16 15 15 15 14 13 13 12 11 10 10 8 7 7 7 4 4 4 4 5 5 5 7 7 8 8 8 10 11
7 6 6 5 9 10 11 6 10 11 10 12 15 14 13 14 16 17 14 13 13 13 12 11 11 10 8 8 8 6 5 3 3 4 4 5 5 5 5 5 6 9 8 10
Wind_Direction
186 191 204 191 214 331 230 214 198 198 158 203 228 245 190 197 207 203 200 195 192 185 156 160 149 137 123 90 76 55 51 38 15 13 1 357 360 11 9 6 11 360 360 1
185 228 219 193 189 209 196 195 196 125 175 214 236 255 245 198 213 212 205 200 197 182 174 168 164 152 130 99 86 76 54 41 25 10 1 356 355 0 351 357 358 10 359 358
231 75 165 173 182 184 206 233 193 305 163 213 285 261 244 211 216 217 216 208 200 191 186 173 169 161 150 115 100 77 54 41 34 358 7 357 359 351 357 353 358 1 354 355
241 134 181 193 213 218 240 199 223 172 192 280 201 291 244 231 207 216 214 207 201 192 189 172 167 162 149 125 121 85 55 43 37 15 7 6 359 351 353 340 349 340 356 355
130 178 186 201 212 198 332 144 169 194 231 265 188 259 176 142 226 224 210 207 203 191 187 173 169 158 142 150 114 82 65 54 33 18 12 360 3 348 339 341 337 347 351 353
61 91 229 54 87 228 139 131 132 187 241 250 294 246 257 182 100 99 204 198 195 187 181 171 155 152 143 134 105 88 69 52 29 16 17 8 358 345 339 347 339 348 347 349
169 165 133 169 118 139 202 197 246 223 207 285 146 223 285 133 86 339 197 182 186 180 177 167 165 164 151 138 115 101 65 55 26 17 17 7 357 343 335 342 347 340 344 350
217 194 181 167 245 209 207 237 254 278 258 345 176 240 92 103 45 336 213 164 168 173 172 172 166 155 147 134 119 109 82 53 30 18 14 11 359 349 341 349 343 343 343 350
214 203 139 178 178 244 164 220 350 274 196 260 250 221 154 169 134 122 131 152 165 171 170 167 159 153 146 138 125 109 84 58 32 19 13 8 358 351 349 342 343 345 347 345
211 227 208 132 175 115 264 129 188 214 261 259 192 265 295 164 163 157 162 165 165 167 167 162 159 150 141 131 125 121 106 53 32 21 14 3 353 352 344 340 347 345 347 348
216 243 137 178 209 212 171 205 225 287 276 279 288 276 79 124 140 171 163 166 169 169 166 163 151 144 140 137 135 137 124 56 36 23 8 356 356 352 346 349 347 350 345 348
194 272 233 221 84 297 267 246 212 237 206 243 306 291 143 118 84 147 153 165 167 166 161 157 149 144 144 148 147 140 113 57 37 23 6 1 359 355 355 357 351 351 347 349
185 224 242 202 188 191 232 214 226 247 264 223 258 266 152 142 113 123 152 160 161 158 158 153 149 151 150 149 149 143 107 65 37 18 4 11 6 1 0 357 352 351 347 350
290 259 255 264 312 23 208 216 216 219 238 241 237 245 187 201 187 154 153 158 157 163 161 158 155 150 151 150 151 133 98 60 33 18 9 17 7 2 2 357 353 351 347 352
278 269 264 267 273 258 274 252 218 220 232 226 269 230 132 120 152 160 152 154 158 164 165 163 156 153 154 151 143 122 99 61 32 20 18 16 5 2 3 359 355 353 354 357
304 271 304 272 266 272 260 252 245 236 250 254 252 260 91 105 123 146 156 162 166 168 166 161 154 154 152 151 141 121 94 65 41 28 26 10 6 2 5 358 356 356 358 0
281 290 261 270 301 284 263 240 227 223 225 240 236 291 153 153 159 159 160 169 168 166 161 158 157 156 146 139 132 115 89 83 51 32 29 15 8 4 4 357 358 359 0 358
298 302 275 287 236 245 305 38 304 232 231 198 120 126 128 122 103 116 143 159 158 159 156 154 149 137 130 126 109 107 90 88 51 38 32 19 10 7 0 358 359 2 359 0
151 322 289 258 237 288 266 209 187 180 217 187 146 125 116 125 125 92 113 136 146 149 148 140 132 128 126 122 114 101 101 82 63 43 38 17 6 2 3 3 1 4 0 360
116 152 234 5 283 256 23 84 245 269 220 154 151 152 160 165 205 127 139 130 134 134 133 129 128 126 124 116 112 109 100 87 63 52 36 10 15 7 8 1 6 8 4 0
259 187 262 296 268 302 6 342 308 232 39 148 157 158 160 183 29 116 131 128 128 127 126 126 126 127 115 119 119 119 108 87 83 65 27 24 19 12 7 4 12 11 7 9
242 212 179 152 249 255 9 279 341 348 71 141 133 144 118 111 119 124 125 127 127 126 131 129 125 121 117 121 134 127 109 114 83 60 44 31 21 14 10 19 19 16 15 17
237 256 260 203 199 355 344 291 337 343 356 48 127 122 134 134 130 134 132 131 132 133 132 134 126 122 120 128 140 123 118 102 73 59 37 14 31 29 30 25 23 21 21 20
87 54 268 284 247 262 286 287 337 13 65 115 141 141 145 144 140 134 135 134 137 134 137 129 131 126 124 131 120 124 64 69 108 115 141 48 51 22 40 36 29 34 25 18
305 101 352 296 303 316 265 242 159 118 111 121 128 143 146 145 137 138 138 139 142 137 136 139 129 128 126 120 117 106 116 118 117 80 54 51 44 41 49 66 28 36 44 25
202 166 132 231 276 257 298 226 164 153 157 143 142 145 140 140 141 140 140 142 143 142 140 133 124 130 132 129 119 122 154 109 85 83 62 32 49 47 41 42 95 81 57 37